Prairie Du Chien, WI

4:18 PM CDT on September 22, 2019 (GMT -0500)
Prairie Du Chien Municipal

Weather History for KPDC - August, 2019

Change the Weather History Date:

Monday, August 19, 2019

  Actual Average Record
Temperature  
Mean Temperature 70 °F -  
Max Temperature 81 °F 82 °F 102 °F (1955)
Min Temperature 58 °F 60 °F 42 °F (1963)
Cooling Degree Days 4    
Growing Degree Days 20 (Base 50)    
Moisture  
Dew Point 59 °F    
Average Humidity 73    
Maximum Humidity 96    
Minimum Humidity 33    
Precipitation  
Precipitation 0.00 in - - ()
Sea Level Pressure  
Sea Level Pressure 30.01 in    
Wind  
Wind Speed 0 mph (ESE)    
Max Wind Speed 6 mph    
Max Gust Speed -    
Visibility 10 miles    
Events      
Averages and records for this station are not official NWS values.
T = Trace of Precipitation, MM = Missing Value Source: NWS Daily Summary

Daily Weather History Graph

Daily Weather History Graph

Search for Another Location

Airport or City:

Astronomy

Aug. 19, 2019 Rise Set
Actual Time 6:14 AM CDT 8:00 PM CDT
Civil Twilight 5:44 AM CDT 8:31 PM CDT
Nautical Twilight 5:07 AM CDT 9:07 PM CDT
Astronomical Twilight 4:27 AM CDT 9:47 PM CDT
Moon 10:16 PM CDT (8/19) 10:01 AM CDT (8/19)
Length of Visible Light 14h 47m
Length of Day
13h 46m
Waning Gibbous, 85% of the Moon is Illuminated
Aug 19
Waning Gibbous
Aug 23
Last Quarter
Aug 30
New
Sep 5
First Quarter
Sep 13
Full

Hourly Weather History & Observations

Time (CDT) Temp. Heat Index Dew Point Humidity Pressure Visibility Wind Dir Wind Speed Gust Speed Precip Events Conditions
12:15 AM 64.0 °F - 62.6 °F 95% 29.93 in 10.0 mi Calm Calm - N/A   Clear
12:35 AM 63.5 °F - 61.9 °F 94% 29.94 in 10.0 mi Calm Calm - N/A   Clear
12:55 AM 63.0 °F - 61.7 °F 96% 29.95 in 10.0 mi Calm Calm - N/A   Clear
1:15 AM 62.6 °F - 61.0 °F 94% 29.95 in 10.0 mi Calm Calm - N/A   Clear
1:35 AM 62.4 °F - 61.0 °F 95% 29.96 in 10.0 mi Calm Calm - N/A   Clear
1:55 AM 62.1 °F - 60.6 °F 95% 29.95 in 10.0 mi Calm Calm - N/A   Clear
2:15 AM 61.3 °F - 60.1 °F 96% 29.96 in 10.0 mi Calm Calm - N/A   Clear
2:35 AM 61.0 °F - 59.9 °F 96% 29.96 in 10.0 mi Calm Calm - N/A   Clear
3:15 AM 60.8 °F - 59.5 °F 96% 29.97 in 10.0 mi Calm Calm - N/A   Scattered Clouds
3:35 AM 60.8 °F - 59.2 °F 94% 29.97 in 10.0 mi Calm Calm - N/A   Mostly Cloudy
3:55 AM 61.3 °F - 59.9 °F 95% 29.98 in 10.0 mi Calm Calm - N/A   Mostly Cloudy
4:15 AM 60.8 °F - 59.2 °F 94% 29.99 in 10.0 mi Calm Calm - N/A   Scattered Clouds
4:35 AM 61.2 °F - 59.9 °F 96% 29.99 in 10.0 mi Calm Calm - N/A   Clear
4:55 AM 61.0 °F - 59.5 °F 95% 29.99 in 10.0 mi Calm Calm - N/A   Clear
5:15 AM 60.8 °F - 59.4 °F 95% 30.00 in 10.0 mi Calm Calm - N/A   Clear
5:35 AM 59.5 °F - 58.3 °F 96% 30.00 in 10.0 mi Calm Calm - N/A   Clear
5:55 AM 59.4 °F - 58.1 °F 96% 30.01 in 10.0 mi Calm Calm - N/A   Clear
6:15 AM 58.5 °F - 57.2 °F 96% 30.01 in 10.0 mi Calm Calm - N/A   Clear
6:35 AM 58.5 °F - 57.2 °F 96% 30.02 in 10.0 mi Calm Calm - N/A   Clear
6:55 AM 59.0 °F - 57.6 °F 95% 30.02 in 10.0 mi Calm Calm - N/A   Clear
7:15 AM 60.3 °F - 59.0 °F 96% 30.02 in 10.0 mi Calm Calm - N/A   Clear
7:35 AM 61.9 °F - 59.9 °F 93% 30.03 in 10.0 mi Calm Calm - N/A   Clear
7:55 AM 62.6 °F - 60.1 °F 91% 30.02 in 10.0 mi Calm Calm - N/A   Clear
8:15 AM 63.5 °F - 60.3 °F 89% 30.02 in 10.0 mi Calm Calm - N/A   Clear
8:35 AM 64.4 °F - 60.3 °F 86% 30.03 in 10.0 mi Calm Calm - N/A   Clear
8:55 AM 65.5 °F - 61.5 °F 87% 30.03 in 10.0 mi Calm Calm - N/A   Clear
9:15 AM 66.6 °F - 61.0 °F 82% 30.03 in 10.0 mi Calm Calm - N/A   Clear
9:35 AM 68.2 °F - 62.1 °F 81% 30.04 in 10.0 mi Calm Calm - N/A   Clear
9:55 AM 70.0 °F - 59.2 °F 68% 30.04 in 10.0 mi ESE 4.6 mph - N/A   Clear
10:15 AM 71.1 °F - 56.3 °F 60% 30.03 in 10.0 mi ESE 4.6 mph - N/A   Clear
10:35 AM 71.6 °F - 57.9 °F 62% 30.04 in 10.0 mi SSE 3.5 mph - N/A   Clear
10:55 AM 72.7 °F - 59.2 °F 62% 30.04 in 10.0 mi Calm Calm - N/A   Clear
11:15 AM 73.6 °F - 59.4 °F 61% 30.04 in 10.0 mi East 3.5 mph - N/A   Clear
11:35 AM 74.1 °F - 55.0 °F 51% 30.04 in 10.0 mi Calm Calm - N/A   Clear
11:55 AM 75.2 °F - 56.5 °F 52% 30.04 in 10.0 mi East 3.5 mph - N/A   Clear
12:15 PM 75.2 °F - 56.1 °F 51% 30.03 in 10.0 mi Calm Calm - N/A   Clear
12:35 PM 76.5 °F - 57.9 °F 53% 30.03 in 10.0 mi SE 5.8 mph - N/A   Clear
12:55 PM 76.8 °F - 55.4 °F 47% 30.03 in 10.0 mi Calm Calm - N/A   Clear
1:15 PM 77.9 °F - 57.2 °F 49% 30.03 in 10.0 mi Calm Calm - N/A   Clear
1:35 PM 78.8 °F - 57.6 °F 48% 30.03 in 10.0 mi South 3.5 mph - N/A   Clear
1:55 PM 78.6 °F - 54.5 °F 43% 30.03 in 10.0 mi Calm Calm - N/A   Clear
2:15 PM 79.0 °F - 55.4 °F 44% 30.03 in 10.0 mi Calm Calm - N/A   Clear
2:35 PM 79.9 °F - 50.9 °F 36% 30.02 in 10.0 mi Calm Calm - N/A   Clear
2:55 PM 80.4 °F - 49.1 °F 33% 30.02 in 10.0 mi Calm Calm - N/A   Clear
3:15 PM 79.9 °F - 52.5 °F 39% 30.01 in 10.0 mi Calm Calm - N/A   Clear
3:35 PM 80.8 °F - 51.6 °F 36% 30.01 in 10.0 mi Calm Calm - N/A   Clear
3:55 PM 80.8 °F 80.4 °F 53.4 °F 39% 30.01 in 10.0 mi Calm Calm - N/A   Clear
4:15 PM 80.4 °F 80.2 °F 53.8 °F 40% 30.00 in 10.0 mi WSW 3.5 mph - N/A   Clear
4:35 PM 81.0 °F 80.4 °F 53.2 °F 38% 30.00 in 10.0 mi Calm Calm - N/A   Clear
4:55 PM 80.6 °F 80.6 °F 55.9 °F 43% 30.00 in 10.0 mi Calm Calm - N/A   Clear
5:15 PM 80.8 °F 80.8 °F 56.5 °F 43% 30.00 in 10.0 mi Calm Calm - N/A   Clear
5:35 PM 80.6 °F 80.6 °F 56.1 °F 43% 30.00 in 10.0 mi Calm Calm - N/A   Clear
5:55 PM 80.4 °F 80.6 °F 56.8 °F 44% 29.99 in 10.0 mi Calm Calm - N/A   Clear
6:15 PM 79.7 °F - 56.8 °F 45% 29.99 in 10.0 mi Calm Calm - N/A   Clear
6:35 PM 79.2 °F - 58.5 °F 49% 29.99 in 10.0 mi Calm Calm - N/A   Clear
6:55 PM 77.4 °F - 60.1 °F 55% 29.99 in 10.0 mi Calm Calm - N/A   Clear
7:15 PM 77.2 °F - 61.5 °F 58% 29.99 in 10.0 mi Calm Calm - N/A   Clear
7:35 PM 74.7 °F - 64.9 °F 72% 29.99 in 10.0 mi Calm Calm - N/A   Clear
7:55 PM 72.1 °F - 64.6 °F 77% 29.99 in 10.0 mi East 3.5 mph - N/A   Clear
8:15 PM 70.2 °F - 63.5 °F 79% 29.99 in 10.0 mi Calm Calm - N/A   Clear
8:35 PM 68.9 °F - 62.6 °F 80% 30.00 in 10.0 mi Calm Calm - N/A   Clear
8:55 PM 67.1 °F - 62.6 °F 85% 30.00 in 10.0 mi Calm Calm - N/A   Clear
9:15 PM 66.7 °F - 62.6 °F 86% 30.01 in 10.0 mi Calm Calm - N/A   Clear
9:35 PM 65.8 °F - 62.1 °F 88% 30.01 in 10.0 mi Calm Calm - N/A   Clear
10:55 PM 63.3 °F - 60.8 °F 91% 30.02 in 10.0 mi East 4.6 mph - N/A   Clear
11:15 PM 63.1 °F - 61.0 °F 93% 30.02 in 10.0 mi East 3.5 mph - N/A   Clear
11:35 PM 62.8 °F - 60.8 °F 93% 30.03 in 10.0 mi East 4.6 mph - N/A   Clear
11:55 PM 62.6 °F - 60.8 °F 94% 30.03 in 10.0 mi East 3.5 mph - N/A   Clear